DM5RC Weather Reports


Display with metric or nautical units.
time (UTC)temp
F
wind
direction
speed
MPH
gust
MPH
rain 1hr
in
rain 24hr
in
rain mn
in
humidity
%
barometer
mb
20260903145337 75 264 5.0 12.0 0.00 0.00 0.00 60 1014.2
20260903144834 75 272 5.0 15.0 0.00 0.00 0.00 60 1014.3
20260903144314 75 252 5.0 15.0 0.00 0.00 0.00 60 1014.4
20260903143816 75 224 8.0 12.0 0.00 0.00 0.00 59 1014.4
20260903143318 75 260 5.0 15.0 0.00 0.00 0.00 60 1014.4
20260903142820 74 284 5.0 15.0 0.00 0.00 0.00 60 1014.5
20260903142342 74 276 4.0 13.0 0.00 0.00 0.00 59 1014.6
20260903141824 74 249 7.0 15.0 0.00 0.00 0.00 59 1014.6
20260903141326 74 268 8.0 15.0 0.00 0.00 0.00 59 1014.7
20260903140849 74 264 5.0 14.0 0.00 0.00 0.00 59 1014.7
20260903140331 74 269 6.0 18.0 0.00 0.00 0.00 59 1014.8
20260903135816 74 210 11.0 18.0 0.00 0.00 0.00 58 1014.9
20260903135339 74 254 7.0 17.0 0.00 0.00 0.00 58 1014.9
20260903134820 74 238 8.0 14.0 0.00 0.00 0.00 58 1014.8
20260903134320 75 263 8.0 15.0 0.00 0.00 0.00 57 1014.8
20260903133819 74 250 7.0 15.0 0.00 0.00 0.00 58 1014.8
20260903133319 74 230 7.0 16.0 0.00 0.00 0.00 57 1014.9
20260903132819 75 236 7.0 13.0 0.00 0.00 0.00 57 1015.0
20260903132320 74 219 7.0 16.0 0.00 0.00 0.00 57 1015.0
20260903131840 74 283 7.0 16.0 0.00 0.00 0.00 58 1015.1
20260903131321 73 233 8.0 16.0 0.00 0.00 0.00 58 1015.2
20260903130823 73 138 5.0 11.0 0.00 0.00 0.00 59 1015.2
20260903130318 73 229 6.0 13.0 0.00 0.00 0.00 58 1015.2
20260903125821 73 184 4.0 15.0 0.00 0.00 0.00 59 1015.4
20260903125343 73 257 5.0 15.0 0.00 0.00 0.00 59 1015.5
20260903124825 73 242 5.0 13.0 0.00 0.00 0.00 59 1015.5
20260903124328 72 272 5.0 13.0 0.00 0.00 0.00 58 1015.6
20260903123830 72 233 4.0 11.0 0.00 0.00 0.00 60 1015.7
20260903123331 72 269 5.0 14.0 0.00 0.00 0.00 61 1015.8
20260903122837 71 268 7.0 16.0 0.00 0.00 0.00 60 1015.8
20260903122319 72 261 8.0 16.0 0.00 0.00 0.00 61 1015.8
20260903121821 72 274 7.0 15.0 0.00 0.00 0.00 61 1015.9
20260903121323 72 262 7.0 13.0 0.00 0.00 0.00 61 1016.0
20260903120826 71 272 5.0 12.0 0.00 0.00 0.00 62 1016.0
20260903120328 71 238 6.0 16.0 0.00 0.00 0.00 62 1016.0
20260903115830 71 271 7.0 16.0 0.00 0.00 0.00 62 1016.1
20260903115313 71 290 6.0 14.0 0.00 0.00 0.00 63 1016.1
20260903114814 71 245 6.0 14.0 0.00 0.00 0.00 63 1016.1
20260903114315 71 185 7.0 12.0 0.00 0.00 0.00 63 1016.1
20260903113817 71 248 3.0 10.0 0.00 0.00 0.00 63 1016.2
20260903113317 71 262 7.0 15.0 0.00 0.00 0.00 62 1016.2
20260903112816 71 258 6.0 16.0 0.00 0.00 0.00 63 1016.3
20260903112314 71 258 10.0 19.0 0.00 0.00 0.00 61 1016.3
20260903111819 72 227 7.0 18.0 0.00 0.00 0.00 62 1016.2
20260903111322 72 249 9.0 17.0 0.00 0.00 0.00 62 1016.2
20260903110823 72 250 8.0 14.0 0.00 0.00 0.00 62 1016.4
20260903110325 72 270 7.0 11.0 0.00 0.00 0.00 62 1016.4
20260903105842 71 268 7.0 14.0 0.00 0.00 0.00 63 1016.4
20260903105341 71 263 7.0 14.0 0.00 0.00 0.00 63 1016.5
20260903104821 71 185 5.0 10.0 0.00 0.00 0.00 64 1016.6
20260903104321 70 246 3.0 21.0 0.00 0.00 0.00 65 1016.6
20260903103822 70 231 7.0 21.0 0.00 0.00 0.00 64 1016.8
20260903103344 71 270 6.0 13.0 0.00 0.00 0.00 64 1017.1
20260903102826 70 286 6.0 13.0 0.00 0.00 0.00 64 1017.0
20260903102350 71 257 7.0 13.0 0.00 0.00 0.00 63 1017.0
20260903101812 70 271 7.0 12.0 0.00 0.00 0.00 64 1017.0
20260903101314 70 267 4.0 17.0 0.00 0.00 0.00 65 1017.1
20260903100817 70 277 7.0 17.0 0.00 0.00 0.00 65 1017.2
20260903100320 70 232 5.0 12.0 0.00 0.00 0.00 65 1017.2
20260903095821 70 247 5.0 12.0 0.00 0.00 0.00 66 1017.2
20260903095323 70 214 7.0 12.0 0.00 0.00 0.00 65 1017.2
20260903094822 69 255 8.0 12.0 0.00 0.00 0.00 65 1017.3
20260903094322 69 261 5.0 12.0 0.00 0.00 0.00 66 1017.2
20260903093843 69 267 6.0 12.0 0.00 0.00 0.00 66 1017.2
20260903093322 69 257 5.0 15.0 0.00 0.00 0.00 68 1017.4
20260903092822 69 179 9.0 16.0 0.00 0.00 0.00 67 1017.4
20260903092322 69 202 9.0 16.0 0.00 0.00 0.00 67 1017.6
20260903091823 69 293 6.0 11.0 0.00 0.00 0.00 69 1017.5
20260903091342 69 188 7.0 11.0 0.00 0.00 0.00 70 1017.6
20260903090822 69 233 2.0 13.0 0.00 0.00 0.00 71 1017.5
20260903090322 68 259 7.0 13.0 0.00 0.00 0.00 70 1017.7
20260903085822 68 260 4.0 12.0 0.00 0.00 0.00 71 1017.6
20260903085322 68 219 5.0 12.0 0.00 0.00 0.00 71 1017.7
20260903084823 68 269 4.0 8.0 0.00 0.00 0.00 73 1017.8
20260903084325 68 262 3.0 11.0 0.00 0.00 0.00 74 1017.8
20260903083828 67 240 5.0 11.0 0.00 0.00 0.00 73 1017.9
20260903083330 67 207 4.0 11.0 0.00 0.00 0.00 74 1018.0
20260903082832 67 261 4.0 11.0 0.00 0.00 0.00 75 1018.1
20260903082314 67 241 4.0 11.0 0.00 0.00 0.00 75 1018.1
20260903081817 67 222 7.0 13.0 0.00 0.00 0.00 75 1018.0
20260903081320 67 281 6.0 13.0 0.00 0.00 0.00 75 1017.9
20260903080822 66 250 6.0 11.0 0.00 0.00 0.00 76 1017.9
20260903080326 66 248 5.0 11.0 0.00 0.00 0.00 76 1017.8
20260903075825 66 272 5.0 10.0 0.00 0.00 0.00 77 1017.7
20260903075327 66 274 6.0 10.0 0.00 0.00 0.00 77 1017.8
20260903074828 66 212 4.0 10.0 0.00 0.00 0.00 78 1017.8
20260903074328 65 264 4.0 9.0 0.00 0.00 0.00 78 1017.7
20260903073829 65 259 3.0 9.0 0.00 0.00 0.00 78 1017.6
20260903073349 65 262 4.0 11.0 0.00 0.00 0.00 79 1017.9
20260903072850 64 231 5.0 11.0 0.00 0.00 0.00 80 1018.0
20260903072329 64 280 4.0 10.0 0.00 0.00 0.00 80 1018.0
20260903071830 65 224 5.0 8.0 0.00 0.00 0.00 79 1017.8
20260903071351 64 147 2.0 9.0 0.00 0.00 0.00 82 1017.8
20260903070830 63 210 4.0 8.0 0.00 0.00 0.00 82 1017.9
20260903070321 62 203 5.0 8.0 0.00 0.00 0.00 83 1017.9
20260903065821 62 262 3.0 7.0 0.00 0.00 0.00 84 1017.9
20260903065322 61 277 3.0 5.0 0.00 0.00 0.00 85 1018.0
20260903064825 61 199 1.0 4.0 0.00 0.00 0.00 85 1018.0
20260903064330 61 259 2.0 7.0 0.00 0.00 0.00 85 1018.1
20260903063814 61 206 3.0 7.0 0.00 0.00 0.00 85 1018.0
20260903063315 61 194 2.0 7.0 0.00 0.00 0.00 85 1018.0
20260903062818 61 209 2.0 5.0 0.00 0.00 0.00 85 1018.2
20260903062319 61 243 3.0 5.0 0.00 0.00 0.00 85 1018.2
20260903061819 61 270 2.0 5.0 0.00 0.00 0.00 86 1018.2
20260903061317 60 224 3.0 5.0 0.00 0.00 0.00 86 1018.2
20260903060838 60 256 2.0 5.0 0.00 0.00 0.00 86 1018.3
20260903060337 60 231 3.0 5.0 0.00 0.00 0.00 87 1018.2
20260903055817 60 259 2.0 8.0 0.00 0.00 0.00 87 1018.4
20260903055317 60 219 4.0 8.0 0.00 0.00 0.00 87 1018.3
20260903054817 60 228 2.0 6.0 0.00 0.00 0.00 87 1018.2
20260903054319 60 226 4.0 6.0 0.00 0.00 0.00 87 1018.1
20260903053822 59 208 2.0 5.0 0.00 0.00 0.00 87 1018.1
20260903053323 59 249 2.0 6.0 0.00 0.00 0.00 87 1018.2
20260903052827 59 270 3.0 7.0 0.00 0.00 0.00 87 1018.1
20260903052349 59 233 3.0 7.0 0.00 0.00 0.00 87 1018.1
20260903051831 59 236 3.0 6.0 0.00 0.00 0.00 88 1018.2
20260903051334 59 234 3.0 7.0 0.00 0.00 0.00 88 1018.2
20260903050848 58 255 2.0 6.0 0.00 0.00 0.00 88 1018.1
20260903050325 58 269 2.0 6.0 0.00 0.00 0.00 88 1018.1
20260903045812 58 290 3.0 5.0 0.00 0.00 0.00 88 1018.1
20260903045316 58 191 2.0 5.0 0.00 0.00 0.00 88 1018.0
20260903044817 58 230 2.0 4.0 0.00 0.00 0.00 88 1018.0
20260903044336 58 237 2.0 4.0 0.00 0.00 0.00 88 1018.0
20260903043816 58 270 3.0 4.0 0.00 0.00 0.00 87 1018.0
20260903043318 58 246 2.0 4.0 0.00 0.00 0.00 87 1018.0
20260903042821 58 230 2.0 5.0 0.00 0.00 0.00 87 1018.0
20260903042322 58 266 2.0 5.0 0.00 0.00 0.00 87 1018.0
20260903041823 58 233 2.0 4.0 0.00 0.00 0.00 87 1017.9
20260903041325 58 239 2.0 4.0 0.00 0.00 0.00 86 1017.9
20260903040825 59 264 2.0 5.0 0.00 0.00 0.00 86 1017.9
20260903035825 59 256 3.0 6.0 0.00 0.00 0.00 86 1018.2
20260903035326 59 224 3.0 6.0 0.00 0.00 0.00 85 1018.2
20260903034826 59 256 2.0 5.0 0.00 0.00 0.00 85 1018.1
20260903034327 59 226 3.0 7.0 0.00 0.00 0.00 85 1018.0
20260903033829 59 280 3.0 4.0 0.00 0.00 0.00 85 1018.1
20260903033329 59 264 2.0 4.0 0.00 0.00 0.00 85 1018.0
20260903032852 60 274 2.0 5.0 0.00 0.00 0.00 85 1018.0
20260903032315 60 264 3.0 5.0 0.00 0.00 0.00 85 1018.0
20260903031840 60 269 3.0 5.0 0.00 0.00 0.00 85 1018.0
20260903031322 60 273 3.0 6.0 0.00 0.00 0.00 85 1018.0
20260903030816 60 252 4.0 7.0 0.00 0.00 0.00 85 1018.0
20260903030316 60 267 4.0 8.0 0.00 0.00 0.00 85 1018.0
20260903025817 60 279 4.0 8.0 0.00 0.00 0.00 85 1018.1
20260903025337 60 268 3.0 6.0 0.00 0.00 0.00 85 1018.0
20260903024815 60 274 3.0 7.0 0.00 0.00 0.00 85 1018.0
20260903024316 60 262 3.0 8.0 0.00 0.00 0.00 85 1018.0
20260903023835 60 273 3.0 8.0 0.00 0.00 0.00 86 1018.0
20260903023335 59 271 4.0 7.0 0.00 0.00 0.00 86 1018.0
20260903022815 59 270 3.0 5.0 0.00 0.00 0.00 87 1018.0
20260903022317 59 254 3.0 4.0 0.00 0.00 0.00 87 1018.0
20260903021820 59 273 2.0 4.0 0.00 0.00 0.00 87 1018.1
20260903021343 59 264 3.0 5.0 0.00 0.00 0.00 87 1018.1
20260903020822 59 272 3.0 5.0 0.00 0.00 0.00 87 1018.1
20260903020325 59 241 2.0 4.0 0.00 0.00 0.00 87 1018.1
20260903015828 59 259 2.0 5.0 0.00 0.00 0.00 87 1018.1
20260903015330 59 262 3.0 5.0 0.00 0.00 0.00 87 1018.2
20260903014812 59 257 3.0 5.0 0.00 0.00 0.00 87 1018.2
20260903014313 59 264 2.0 3.0 0.00 0.00 0.00 87 1018.2
20260903013814 59 255 2.0 4.0 0.00 0.00 0.00 87 1018.1
20260903013316 59 261 2.0 4.0 0.00 0.00 0.00 87 1018.1
20260903012818 59 274 2.0 4.0 0.00 0.00 0.00 86 1018.1
20260903012321 60 250 2.0 5.0 0.00 0.00 0.00 86 1018.2
20260903011823 60 250 3.0 5.0 0.00 0.00 0.00 86 1018.2
20260903011345 60 269 2.0 4.0 0.00 0.00 0.00 86 1018.2
20260903010827 60 269 2.0 4.0 0.00 0.00 0.00 86 1018.2
20260903010329 60 268 1.0 4.0 0.00 0.00 0.00 86 1018.2
20260903005830 60 268 2.0 4.0 0.00 0.00 0.00 86 1018.2
20260903005331 60 258 1.0 3.0 0.00 0.00 0.00 85 1018.3
20260903004832 60 269 2.0 3.0 0.00 0.00 0.00 85 1018.3
20260903004313 60 264 2.0 4.0 0.00 0.00 0.00 85 1018.3
20260903003817 60 269 2.0 4.0 0.00 0.00 0.00 85 1018.3
20260903003323 60 273 3.0 4.0 0.00 0.00 0.00 85 1018.2
20260903002828 60 272 2.0 6.0 0.00 0.00 0.00 86 1018.2
20260903002314 60 273 3.0 6.0 0.00 0.00 0.00 86 1018.2
20260903001817 60 265 1.0 2.0 0.00 0.00 0.00 86 1018.1
20260903001317 60 265 1.0 2.0 0.00 0.00 0.00 86 1018.1
20260903000816 60 265 1.0 2.0 0.00 0.00 0.00 86 1018.1
20260903000314 60 265 0.0 1.0 0.00 0.00 0.00 86 1018.0
20260902235814 60 265 0.0 2.0 0.00 0.00 0.00 85 1018.0
20260902235315 60 265 1.0 2.0 0.00 0.00 0.00 85 1018.0
20260902234815 60 265 1.0 2.0 0.00 0.00 0.00 85 1018.1
20260902234335 60 265 1.0 3.0 0.00 0.00 0.00 85 1018.1
20260902233815 60 265 2.0 3.0 0.00 0.00 0.00 85 1018.1
20260902233335 60 256 1.0 3.0 0.00 0.00 0.00 85 1018.1
20260902232816 60 249 1.0 2.0 0.00 0.00 0.00 85 1018.1
20260902232319 60 243 1.0 3.0 0.00 0.00 0.00 85 1018.0
20260902231821 60 262 1.0 3.0 0.00 0.00 0.00 85 1018.1
20260902231324 59 259 2.0 3.0 0.00 0.00 0.00 86 1018.1
20260902230827 59 256 2.0 3.0 0.00 0.00 0.00 86 1018.1
20260902230329 59 259 1.0 2.0 0.00 0.00 0.00 86 1018.1
20260902225831 59 226 0.0 1.0 0.00 0.00 0.00 85 1018.0
20260902225353 60 226 0.0 2.0 0.00 0.00 0.00 84 1018.1
20260902224813 60 226 1.0 2.0 0.00 0.00 0.00 84 1018.1
20260902224313 60 213 1.0 2.0 0.00 0.00 0.00 84 1018.1
20260902223813 60 262 1.0 3.0 0.00 0.00 0.00 84 1018.1
20260902223313 60 248 1.0 2.0 0.00 0.00 0.00 84 1018.1
20260902222815 60 264 1.0 2.0 0.00 0.00 0.00 84 1018.2
20260902222318 60 226 1.0 2.0 0.00 0.00 0.00 84 1018.2
20260902221820 60 224 0.0 2.0 0.00 0.00 0.00 83 1018.2
20260902221322 61 223 1.0 2.0 0.00 0.00 0.00 83 1018.3
20260902220824 61 254 0.0 1.0 0.00 0.00 0.00 83 1018.2
20260902220327 61 254 0.0 1.0 0.00 0.00 0.00 83 1018.3
20260902215828 61 254 0.0 1.0 0.00 0.00 0.00 83 1018.3
20260902215351 61 254 0.0 1.0 0.00 0.00 0.00 82 1018.3
20260902214814 61 254 1.0 2.0 0.00 0.00 0.00 82 1018.3
20260902214316 61 254 1.0 2.0 0.00 0.00 0.00 82 1018.3
20260902213816 61 250 1.0 2.0 0.00 0.00 0.00 81 1018.3
20260902213317 61 237 0.0 2.0 0.00 0.00 0.00 82 1018.3
20260902212815 61 209 1.0 2.0 0.00 0.00 0.00 83 1018.3
20260902212317 60 243 0.0 1.0 0.00 0.00 0.00 84 1018.3
20260902211820 60 243 0.0 0.0 0.00 0.00 0.00 84 1018.2
20260902211322 61 243 0.0 0.0 0.00 0.00 0.00 84 1018.2
20260902210824 61 243 0.0 1.0 0.00 0.00 0.00 84 1018.2
20260902210327 61 243 0.0 2.0 0.00 0.00 0.00 83 1018.2
20260902205829 61 229 1.0 2.0 0.00 0.00 0.00 83 1018.2
20260902205332 61 222 0.0 0.0 0.00 0.00 0.00 83 1018.1
20260902204814 62 222 0.0 1.0 0.00 0.00 0.00 82 1018.0
20260902204316 62 222 0.0 2.0 0.00 0.00 0.00 82 1018.1
20260902203818 62 222 0.0 2.0 0.00 0.00 0.00 83 1018.1
20260902203321 62 222 0.0 2.0 0.00 0.00 0.00 83 1018.2
20260902202823 61 238 1.0 2.0 0.00 0.00 0.00 83 1018.2
20260902202347 61 215 0.0 1.0 0.00 0.00 0.00 84 1018.2
20260902201828 61 215 0.0 1.0 0.00 0.00 0.00 85 1018.2
20260902201331 62 215 0.0 0.0 0.00 0.00 0.00 85 1018.2
20260902200815 62 215 0.0 1.0 0.00 0.00 0.00 85 1018.2
20260902200319 62 215 0.0 2.0 0.00 0.00 0.00 85 1018.2
20260902195830 61 215 1.0 2.0 0.00 0.00 0.00 87 1018.2
20260902195314 61 219 1.0 2.0 0.00 0.00 0.00 88 1018.2
20260902194816 61 120 0.0 0.0 0.00 0.00 0.00 88 1018.3
20260902194314 62 120 0.0 0.0 0.00 0.00 0.00 88 1018.2
20260902193817 62 120 0.0 0.0 0.00 0.00 0.00 88 1018.2
20260902193318 62 120 0.0 0.0 0.00 0.00 0.00 87 1018.2
20260902192819 62 120 0.0 0.0 0.00 0.00 0.00 87 1018.2
20260902192321 62 120 0.0 0.0 0.00 0.00 0.00 87 1018.2
20260902191820 63 120 0.0 0.0 0.00 0.00 0.00 87 1018.2
20260902191341 63 120 0.0 0.0 0.00 0.00 0.00 87 1018.2
20260902190841 63 120 0.0 0.0 0.00 0.00 0.00 86 1018.2
20260902190321 63 120 0.0 0.0 0.00 0.00 0.00 85 1018.2
20260902185822 64 120 0.0 0.0 0.00 0.00 0.00 84 1018.2
20260902185322 64 120 0.0 0.0 0.00 0.00 0.00 84 1018.1
20260902184823 65 120 0.0 0.0 0.00 0.00 0.00 84 1018.2
20260902184324 65 120 0.0 0.0 0.00 0.00 0.00 83 1018.1
20260902183842 65 120 0.0 0.0 0.00 0.00 0.00 82 1018.2
20260902183322 66 120 0.0 0.0 0.00 0.00 0.00 81 1018.1
20260902182844 66 120 0.0 0.0 0.00 0.00 0.00 81 1018.1
20260902182326 66 120 0.0 0.0 0.00 0.00 0.00 81 1017.9
20260902181849 66 120 0.0 0.0 0.00 0.00 0.00 81 1018.0
20260902181331 67 120 0.0 0.0 0.00 0.00 0.00 81 1017.9
20260902180813 67 120 0.0 0.0 0.00 0.00 0.00 81 1017.7
20260902180315 67 120 0.0 0.0 0.00 0.00 0.00 80 1017.7
20260902175816 67 120 0.0 1.0 0.00 0.00 0.00 80 1017.7
20260902175317 68 120 0.0 1.0 0.00 0.00 0.00 79 1017.7
20260902174817 68 120 0.0 1.0 0.00 0.00 0.00 78 1017.7
20260902174319 68 120 0.0 1.0 0.00 0.00 0.00 77 1017.6
20260902173821 69 120 0.0 0.0 0.00 0.00 0.00 76 1017.7
20260902173324 69 120 0.0 0.0 0.00 0.00 0.00 75 1017.6
20260902172826 69 120 0.0 0.0 0.00 0.00 0.00 74 1017.7
20260902172329 69 120 0.0 0.0 0.00 0.00 0.00 73 1017.7
20260902171812 70 120 0.0 1.0 0.00 0.00 0.00 73 1017.6
20260902171313 70 120 0.0 1.0 0.00 0.00 0.00 71 1017.6
20260902170813 70 120 0.0 1.0 0.00 0.00 0.00 69 1017.6
20260902170318 70 120 0.0 2.0 0.00 0.00 0.00 71 1017.5
20260902165841 70 120 1.0 2.0 0.00 0.04 0.00 72 1017.5
20260902165331 71 136 1.0 2.0 0.00 0.04 0.00 69 1017.5
20260902164813 71 13 0.0 2.0 0.00 0.04 0.00 68 1017.6
20260902164314 71 13 0.0 2.0 0.00 0.04 0.00 67 1017.6
20260902163814 71 13 0.0 1.0 0.00 0.04 0.00 68 1017.6
20260902163316 71 13 0.0 0.0 0.00 0.04 0.00 67 1017.7
20260902162838 71 13 0.0 0.0 0.00 0.04 0.00 66 1017.8
20260902162318 71 13 0.0 0.0 0.00 0.04 0.00 65 1017.8
20260902161838 72 13 0.0 0.0 0.00 0.04 0.00 62 1017.9
20260902161316 71 13 0.0 1.0 0.00 0.04 0.00 62 1017.9
20260902160816 72 13 0.0 1.0 0.00 0.04 0.00 64 1018.0
20260902160319 72 13 0.0 2.0 0.00 0.04 0.00 63 1018.0
20260902155822 72 276 0.0 2.0 0.00 0.04 0.00 63 1018.1
20260902155326 72 274 0.0 2.0 0.00 0.04 0.00 63 1018.1
20260902154828 72 274 1.0 2.0 0.00 0.04 0.00 63 1018.2
20260902154332 72 284 1.0 2.0 0.00 0.04 0.00 62 1018.2
20260902153816 72 312 0.0 2.0 0.00 0.04 0.00 62 1018.2
20260902153338 72 304 1.0 2.0 0.00 0.04 0.00 62 1018.3
20260902152817 72 299 0.0 4.0 0.00 0.04 0.00 62 1018.3
20260902152317 72 328 2.0 4.0 0.00 0.04 0.00 63 1018.3
20260902151817 72 357 2.0 4.0 0.00 0.04 0.00 62 1018.3
20260902151337 73 278 1.0 4.0 0.00 0.04 0.00 61 1018.3
20260902150817 73 323 2.0 4.0 0.00 0.04 0.00 60 1018.4
20260902150318 73 39 1.0 5.0 0.00 0.04 0.00 61 1018.4
20260902145819 72 265 2.0 5.0 0.00 0.04 0.00 63 1018.4